FW2460 Weather Reports


time (UTC)temp
F
wind
direction
speed
knots
gust
knots
rain 1hr
in
rain 24hr
in
rain mn
in
humidity
%
barometer
mb
20260510104526 58 78 4.3 7.8 0.00 0.00 0.00 60 1008.3
20260510103023 59 65 7.0 11.3 0.00 0.00 0.00 60 1008.3
20260510101520 60 84 7.8 11.3 0.00 0.00 0.00 61 1007.8
20260510100018 61 75 7.8 12.2 0.00 0.00 0.00 61 1008.1
20260510094518 61 64 9.6 16.5 0.00 0.00 0.00 61 1007.9
20260510093016 61 51 14.8 18.2 0.00 0.00 0.00 61 1008.0
20260510091513 62 24 14.8 19.1 0.00 0.00 0.00 61 1007.9
20260510090010 62 25 13.0 20.9 0.00 0.00 0.00 61 1007.4
20260510084510 63 48 13.9 17.4 0.00 0.00 0.00 59 1007.1
20260510083108 65 42 13.0 15.6 0.00 0.00 0.00 56 1007.0
20260510081556 66 61 10.4 15.6 0.00 0.00 0.00 54 1007.0
20260510080059 67 40 10.4 16.5 0.00 0.00 0.00 53 1007.1
20260510074602 68 28 11.3 16.5 0.00 0.00 0.00 52 1007.1
20260510073048 68 49 7.8 9.6 0.00 0.00 0.00 51 1007.0
20260510071554 69 205 0.0 2.6 0.00 0.00 0.00 49 1006.7
20260510070042 70 307 6.1 8.7 0.00 0.00 0.00 49 1007.3
20260510064554 70 5 7.0 12.2 0.00 0.00 0.00 48 1007.3
20260510063037 71 26 5.2 13.9 0.00 0.00 0.00 47 1007.0
20260510061537 70 21 7.0 8.7 0.00 0.00 0.00 46 1006.8
20260510060034 70 18 3.5 5.2 0.00 0.00 0.00 47 1006.4
20260510054627 70 94 2.6 5.2 0.00 0.00 0.00 45 1005.9
20260510053025 70 97 3.5 13.9 0.00 0.00 0.00 45 1005.7
20260510051528 71 75 3.5 7.8 0.00 0.00 0.00 44 1005.4
20260510050018 72 25 7.0 9.6 0.00 0.00 0.00 41 1005.0
20260510044521 73 21 8.7 11.3 0.00 0.00 0.00 36 1005.0
20260510043008 74 14 8.7 11.3 0.00 0.00 0.00 27 1004.9
20260510041503 77 26 8.7 10.4 0.00 0.00 0.00 17 1004.9
20260510040100 79 56 5.2 9.6 0.00 0.00 0.00 13 1005.1
20260510034555 83 51 7.8 13.9 0.00 0.00 0.00 2 1005.4
20260510033050 77 293 8.7 13.9 0.00 0.00 0.00 1 1005.7
20260510031546 74 235 2.6 5.2 0.00 0.00 0.00 2 1004.8
20260510030048 76 174 5.2 7.0 0.00 0.00 0.00 1 1004.5
20260510024549 81 289 1.7 4.3 0.00 0.00 0.00 1 1004.1
20260510023033 83 306 2.6 4.3 0.00 0.00 0.00 1 1003.8
20260510021533 85 327 3.5 5.2 0.00 0.00 0.00 1 1003.6
20260510020030 86 327 5.2 8.7 0.00 0.00 0.00 1 1003.4
20260510014529 86 325 7.8 8.7 0.00 0.00 0.00 1 1003.3
20260510013023 86 326 6.1 7.8 0.00 0.00 0.00 1 1003.2
20260510011531 87 311 6.1 7.8 0.00 0.00 0.00 1 1003.1
20260510010014 90 302 7.8 12.2 0.00 0.00 0.00 1 1003.0
20260510004509 92 298 7.8 14.8 0.00 0.00 0.00 1 1002.9
20260510003005 92 266 12.2 16.5 0.00 0.00 0.00 1 1002.9
20260510001501 93 288 13.9 27.8 0.00 0.00 0.00 1 1002.7
20260510000117 93 284 13.9 22.6 0.00 0.00 0.00 1 1002.8
20260509234603 94 250 13.0 21.7 0.00 0.00 0.00 1 1002.8
20260509233047 94 264 13.9 21.7 0.00 0.00 0.00 1 1002.9
20260509231543 94 265 12.2 27.8 0.00 0.00 0.00 1 1002.9
20260509230039 95 307 14.8 27.8 0.00 0.00 0.00 1 1002.8
20260509224534 94 288 14.8 28.7 0.00 0.00 0.00 1 1003.2
20260509223030 94 262 11.3 21.7 0.00 0.00 0.00 1 1003.3
20260509221537 93 252 13.9 26.1 0.00 0.00 0.00 1 1003.5
20260509220021 92 246 12.2 20.0 0.00 0.00 0.00 1 1003.4
20260509214517 92 178 13.9 25.2 0.00 0.00 0.00 1 1003.7
20260509213012 92 190 7.0 21.7 0.00 0.00 0.00 1 1003.7
20260509211508 93 248 13.0 26.1 0.00 0.00 0.00 1 1004.0
20260509210004 92 194 23.5 32.2 0.00 0.00 0.00 1 1004.1
20260509204602 92 223 23.5 32.2 0.00 0.00 0.00 1 1004.6
20260509203058 92 184 18.2 29.5 0.00 0.00 0.00 1 1005.4
20260509201550 92 242 22.6 32.2 0.00 0.00 0.00 2 1005.3
20260509200046 91 199 18.2 33.0 0.00 0.00 0.00 3 1005.9
20260509194541 91 248 13.9 20.0 0.00 0.00 0.00 3 1006.1
20260509193045 90 241 12.2 27.8 0.00 0.00 0.00 5 1006.5
20260509191552 89 215 12.2 30.4 0.00 0.00 0.00 5 1006.6
20260509190045 89 159 15.6 32.2 0.00 0.00 0.00 6 1006.7
20260509184536 89 184 15.6 25.2 0.00 0.00 0.00 7 1007.2
20260509183038 88 213 14.8 30.4 0.00 0.00 0.00 8 1007.3
20260509181527 87 244 10.4 24.3 0.00 0.00 0.00 9 1007.7
20260509180023 86 269 12.2 24.3 0.00 0.00 0.00 10 1008.1
20260509174523 85 203 12.2 23.5 0.00 0.00 0.00 13 1008.4
20260509173017 84 184 17.4 21.7 0.00 0.00 0.00 14 1008.5
20260509171512 83 191 12.2 25.2 0.00 0.00 0.00 17 1008.6
20260509170016 82 244 11.3 20.9 0.00 0.00 0.00 22 1008.8
20260509164506 81 175 14.8 25.2 0.00 0.00 0.00 25 1008.9
20260509163003 79 196 13.0 20.0 0.00 0.00 0.00 31 1009.2
20260509161501 78 161 14.8 19.1 0.00 0.00 0.00 33 1009.3
20260509160059 76 178 12.2 18.2 0.00 0.00 0.00 37 1009.3
20260509154558 75 178 11.3 16.5 0.00 0.00 0.00 40 1009.1
20260509153053 74 173 8.7 13.9 0.00 0.00 0.00 44 1009.3
20260509151552 72 167 7.0 11.3 0.00 0.00 0.00 53 1009.6
20260509150045 70 161 8.7 14.8 0.00 0.00 0.00 56 1009.7
20260509144547 68 180 7.8 10.4 0.00 0.00 0.00 64 1009.7
20260509143040 64 164 5.2 9.6 0.00 0.00 0.00 72 1009.9
20260509141545 61 197 6.1 11.3 0.00 0.00 0.00 74 1010.0
20260509140038 60 155 8.7 12.2 0.00 0.00 0.00 74 1010.3
20260509134549 60 185 6.1 10.4 0.00 0.00 0.00 74 1010.1
20260509133037 60 185 6.1 9.6 0.00 0.00 0.00 73 1010.0
20260509131552 59 174 8.7 13.0 0.00 0.00 0.00 73 1010.0
20260509130046 59 174 7.8 13.0 0.00 0.00 0.00 73 1009.7
20260509124539 59 167 7.8 12.2 0.00 0.00 0.00 72 1009.6
20260509123032 58 179 7.8 12.2 0.00 0.00 0.00 71 1009.5
20260509121531 57 163 6.1 9.6 0.00 0.00 0.00 70 1009.2
20260509120027 55 177 7.8 10.4 0.00 0.00 0.00 67 1009.3
20260509114524 56 162 7.0 8.7 0.00 0.00 0.00 66 1009.2
20260509113021 56 153 6.1 7.8 0.00 0.00 0.00 63 1009.1
20260509111519 57 155 6.1 7.0 0.00 0.00 0.00 63 1009.1
20260509110023 57 157 7.0 7.8 0.00 0.00 0.00 62 1009.1